Location: Carrières
(48.9495°N, 2.0407°E)
Time: 15:16:55
(UTC+00:00)

Cosmos 1844 Rocket - Pass Details

Date: 28 January 2023
Orbit: 825 x 843 km, 71.0° (Epoch: 25 March)

Event Time Altitude Azimuth Distance (km) Brightness Sun altitude
Rises 17:40:02 0° 335° (NNW) 3,380 5.9 -9.6°
Reaches altitude 10° 17:43:09 10° 352° (N) 2,441 5.0 -10.1°
Maximum altitude 17:47:14 20° 40° (NE) 1,815 4.0 -10.8°
Enters shadow 17:49:57 15° 75° (ENE) 2,110 4.1 -11.2°
